• în Republica Moldova
  • Lista ţărilor
  • Pe 7 zile
  • Temperatura apei
  • Hartă satelitară
  • Meteo pe hartă
  • Widget-uri
  • user-avatar
    Intrare

    Meteo pe oră la Quito

    Astăzi, 23 Noiembrie, Joi

    Timp Temperatura Precipitaţii Vânt Presiune Umiditate
    00:00 +16°C° 0,8 mm 1 m/s 621 mmHg 93%
    01:00 +16°C° 0,8 mm 1 m/s 621 mmHg 93%
    02:00 +16°C° 0 mm 1 m/s 621 mmHg 93%
    03:00 +16°C° 0 mm 1 m/s 621 mmHg 92%
    04:00 +16°C° 0 mm 1 m/s 621 mmHg 92%
    05:00 +18°C° 0 mm 1 m/s 621 mmHg 90%
    06:00 +19°C° 0 mm 1 m/s 622 mmHg 89%
    07:00 +17°C° 0 mm 0 m/s 622 mmHg 87%
    08:00 +21°C° 0,2 mm 1 m/s 622 mmHg 78%
    09:00 +23°C° 0,2 mm 2 m/s 623 mmHg 70%
    10:00 +25°C° 0,2 mm 2 m/s 623 mmHg 61%
    11:00 +26°C° 1 mm 2 m/s 623 mmHg 58%
    12:00 +27°C° 1 mm 2 m/s 623 mmHg 55%
    13:00 +28°C° 1 mm 1 m/s 623 mmHg 52%
    14:00 +27°C° 0,5 mm 1 m/s 622 mmHg 55%
    15:00 +27°C° 0,5 mm 1 m/s 622 mmHg 58%
    16:00 +26°C° 0,5 mm 1 m/s 621 mmHg 62%
    17:00 +24°C° 1 mm 1 m/s 621 mmHg 70%
    18:00 +21°C° 1 mm 2 m/s 621 mmHg 78%
    19:00 +18°C° 1 mm 2 m/s 621 mmHg 86%
    20:00 +19°C° 2,2 mm 1 m/s 621 mmHg 88%
    21:00 +19°C° 2,2 mm 1 m/s 622 mmHg 90%
    22:00 +19°C° 2,2 mm 1 m/s 622 mmHg 92%
    23:00 +19°C° 4 mm 1 m/s 622 mmHg 92%

    Mâine, 24 Noiembrie, Vineri

    Timp Temperatura Precipitaţii Vânt Presiune Umiditate
    00:00 +17°C° 4 mm 2 m/s 622 mmHg 93%
    01:00 +17°C° 4 mm 2 m/s 622 mmHg 94%
    02:00 +17°C° 1,1 mm 2 m/s 621 mmHg 94%
    03:00 +18°C° 1,1 mm 1 m/s 621 mmHg 95%
    04:00 +18°C° 1,1 mm 1 m/s 621 mmHg 95%
    05:00 +18°C° 0,2 mm 1 m/s 621 mmHg 94%
    06:00 +18°C° 0,2 mm 1 m/s 622 mmHg 93%
    07:00 +18°C° 0,2 mm 1 m/s 622 mmHg 92%
    08:00 +19°C° 0,3 mm 1 m/s 623 mmHg 89%
    09:00 +20°C° 0,3 mm 1 m/s 623 mmHg 86%
    10:00 +20°C° 0,3 mm 2 m/s 623 mmHg 83%
    11:00 +21°C° 0,3 mm 2 m/s 623 mmHg 77%
    12:00 +23°C° 0,3 mm 2 m/s 623 mmHg 72%
    13:00 +25°C° 0,3 mm 2 m/s 623 mmHg 67%
    14:00 +24°C° 1,1 mm 2 m/s 622 mmHg 70%
    15:00 +24°C° 1,1 mm 2 m/s 622 mmHg 74%
    16:00 +23°C° 1,1 mm 2 m/s 621 mmHg 78%
    17:00 +21°C° 1,4 mm 2 m/s 621 mmHg 82%
    18:00 +19°C° 1,4 mm 2 m/s 621 mmHg 87%
    19:00 +19°C° 1,4 mm 1 m/s 621 mmHg 92%
    20:00 +19°C° 0,9 mm 1 m/s 622 mmHg 93%
    21:00 +19°C° 0,9 mm 1 m/s 622 mmHg 94%
    22:00 +18°C° 0,9 mm 1 m/s 622 mmHg 95%
    23:00 +18°C° 0,6 mm 1 m/s 622 mmHg 95%

    Poimâine, 25 Noiembrie, Sâmbătă

    Timp Temperatura Precipitaţii Vânt Presiune Umiditate
    00:00 +18°C° 0,6 mm 1 m/s 621 mmHg 96%
    01:00 +18°C° 0,6 mm 1 m/s 621 mmHg 96%
    02:00 +18°C° 0,2 mm 1 m/s 621 mmHg 96%
    03:00 +16°C° 0,2 mm 1 m/s 621 mmHg 95%
    04:00 +15°C° 0,2 mm 0 m/s 620 mmHg 95%
    05:00 +16°C° 0,1 mm 0 m/s 621 mmHg 93%
    06:00 +17°C° 0,1 mm 0 m/s 622 mmHg 91%
    07:00 +18°C° 0,1 mm 0 m/s 622 mmHg 89%
    08:00 +19°C° 0,7 mm 0 m/s 623 mmHg 84%
    09:00 +22°C° 0,7 mm 1 m/s 623 mmHg 79%
    10:00 +24°C° 0,7 mm 1 m/s 624 mmHg 74%
    11:00 +24°C° 1 mm 1 m/s 623 mmHg 74%
    12:00 +24°C° 1 mm 2 m/s 622 mmHg 75%
    13:00 +24°C° 1 mm 2 m/s 622 mmHg 75%
    14:00 +23°C° 1,3 mm 2 m/s 621 mmHg 78%
    15:00 +23°C° 1,3 mm 1 m/s 621 mmHg 80%
    16:00 +22°C° 1,3 mm 1 m/s 620 mmHg 83%
    17:00 +21°C° 0,6 mm 1 m/s 621 mmHg 85%
    18:00 +20°C° 0,6 mm 1 m/s 621 mmHg 87%
    19:00 +19°C° 0,6 mm 1 m/s 621 mmHg 89%
    20:00 +19°C° 0,2 mm 1 m/s 621 mmHg 90%
    21:00 +18°C° 0,2 mm 1 m/s 622 mmHg 91%
    22:00 +18°C° 0,2 mm 1 m/s 622 mmHg 92%
    23:00 +18°C° 0,2 mm 1 m/s 622 mmHg 93%

    26 Noiembrie, Duminică

    Timp Temperatura Precipitaţii Vânt Presiune Umiditate
    00:00 +16°C° 0,2 mm 1 m/s 621 mmHg 93%
    01:00 +16°C° 0,2 mm 1 m/s 621 mmHg 94%
    02:00 +16°C° 0,3 mm 1 m/s 621 mmHg 95%
    03:00 +16°C° 0,3 mm 1 m/s 621 mmHg 95%
    04:00 +15°C° 0,3 mm 0 m/s 621 mmHg 96%
    05:00 +15°C° 0,2 mm 0 m/s 621 mmHg 95%
    06:00 +18°C° 0,2 mm 1 m/s 622 mmHg 94%
    07:00 +18°C° 0,2 mm 1 m/s 623 mmHg 94%
    08:00 +20°C° 0,2 mm 1 m/s 623 mmHg 86%
    09:00 +22°C° 0,2 mm 1 m/s 624 mmHg 79%
    10:00 +24°C° 0,2 mm 1 m/s 625 mmHg 71%
    11:00 +25°C° 0,8 mm 1 m/s 624 mmHg 70%
    12:00 +25°C° 0,8 mm 1 m/s 624 mmHg 69%
    13:00 +26°C° 0,8 mm 1 m/s 623 mmHg 68%
    14:00 +25°C° 1,7 mm 1 m/s 623 mmHg 73%
    15:00 +23°C° 1,7 mm 1 m/s 622 mmHg 79%
    16:00 +21°C° 1,7 mm 2 m/s 622 mmHg 84%
    17:00 +20°C° 1,1 mm 2 m/s 622 mmHg 87%
    18:00 +19°C° 1,1 mm 2 m/s 622 mmHg 90%
    19:00 +18°C° 1,1 mm 2 m/s 622 mmHg 94%
    20:00 +17°C° 0,2 mm 3 m/s 623 mmHg 94%
    21:00 +17°C° 0,2 mm 3 m/s 623 mmHg 95%
    22:00 +17°C° 0,2 mm 3 m/s 623 mmHg 95%
    23:00 +17°C° 0 mm 3 m/s 623 mmHg 95%

    27 Noiembrie, Luni

    Timp Temperatura Precipitaţii Vânt Presiune Umiditate
    00:00 +16°C° 0 mm 3 m/s 623 mmHg 96%
    01:00 +16°C° 0 mm 2 m/s 622 mmHg 96%
    02:00 +16°C° 0 mm 2 m/s 622 mmHg 96%
    03:00 +16°C° 0 mm 2 m/s 622 mmHg 95%
    04:00 +16°C° 0 mm 2 m/s 622 mmHg 95%
    05:00 +17°C° 0 mm 2 m/s 622 mmHg 94%
    06:00 +17°C° 0 mm 2 m/s 623 mmHg 93%
    07:00 +17°C° 0 mm 2 m/s 623 mmHg 92%
    08:00 +18°C° 0,2 mm 2 m/s 624 mmHg 89%
    09:00 +19°C° 0,2 mm 2 m/s 624 mmHg 85%
    10:00 +20°C° 0,2 mm 2 m/s 624 mmHg 81%
    11:00 +21°C° 0,4 mm 2 m/s 624 mmHg 79%
    12:00 +21°C° 0,4 mm 2 m/s 623 mmHg 76%
    13:00 +23°C° 0,4 mm 2 m/s 623 mmHg 74%
    14:00 +23°C° 0,6 mm 1 m/s 622 mmHg 76%
    15:00 +22°C° 0,6 mm 1 m/s 622 mmHg 78%
    16:00 +22°C° 0,6 mm 1 m/s 622 mmHg 80%
    17:00 +21°C° 0,2 mm 1 m/s 622 mmHg 83%
    18:00 +20°C° 0,2 mm 1 m/s 622 mmHg 85%
    19:00 +19°C° 0,2 mm 1 m/s 622 mmHg 87%
    20:00 +18°C° 0 mm 1 m/s 622 mmHg 88%
    21:00 +18°C° 0 mm 1 m/s 623 mmHg 88%
    22:00 +18°C° 0 mm 1 m/s 623 mmHg 89%
    23:00 +16°C° 0 mm 1 m/s 622 mmHg 90%

    28 Noiembrie, Marţi

    Timp Temperatura Precipitaţii Vânt Presiune Umiditate
    00:00 +16°C° 0 mm 1 m/s 622 mmHg 91%
    01:00 +16°C° 0 mm 1 m/s 621 mmHg 92%
    02:00 +16°C° 0 mm 1 m/s 621 mmHg 93%
    03:00 +16°C° 0 mm 1 m/s 621 mmHg 94%
    04:00 +15°C° 0 mm 1 m/s 621 mmHg 94%
    05:00 +16°C° 0 mm 1 m/s 622 mmHg 92%
    06:00 +18°C° 0 mm 1 m/s 622 mmHg 90%
    07:00 +19°C° 0 mm 1 m/s 623 mmHg 88%
    08:00 +21°C° 0,1 mm 1 m/s 624 mmHg 80%
    09:00 +23°C° 0,1 mm 1 m/s 624 mmHg 71%
    10:00 +25°C° 0,1 mm 1 m/s 624 mmHg 62%
    11:00 +26°C° 0,3 mm 1 m/s 624 mmHg 60%
    12:00 +26°C° 0,3 mm 1 m/s 624 mmHg 57%
    13:00 +27°C° 0,3 mm 1 m/s 623 mmHg 55%
    14:00 +26°C° 0,9 mm 1 m/s 623 mmHg 60%
    15:00 +25°C° 0,9 mm 1 m/s 622 mmHg 64%
    16:00 +25°C° 0,9 mm 1 m/s 621 mmHg 69%
    17:00 +23°C° 0,2 mm 1 m/s 621 mmHg 74%
    18:00 +21°C° 0,2 mm 1 m/s 621 mmHg 79%
    19:00 +20°C° 0,2 mm 1 m/s 621 mmHg 84%
    20:00 +19°C° 0,4 mm 1 m/s 622 mmHg 85%
    21:00 +19°C° 0,4 mm 1 m/s 622 mmHg 87%
    22:00 +19°C° 0,4 mm 1 m/s 622 mmHg 89%
    23:00 +18°C° 1,5 mm 1 m/s 622 mmHg 91%
    Arată mai mult